EHI
0 0 0 0 0 0 0 0 0 0 0 0 0 0 0 0 0 0 0 0 0 0 0 0 0 0 0 0 0 0 0 0 0 0 0 0 0 0 0 0 0 0 0 0 0 0 0 0 0
0 0 0 0 0 0 0 0 0 0 0 0 0 0 0 0 0 0 0 0 0 0 0 0 0 0 0 0 0 0 0 0 0 0 0 0 0 0 0 0 0 0 0 0 0 0 0 0 0
0 0 0 0 0 0 0 0 0 0 0 0 0 0 0 0 0 0 0 0 0 0 0 0 0 0 0 0 0 0 0 0 0 0 0 0 0 0 0 0 0 0 0 0 0 0 0 0 0
0 0 0 0 0 0 0 0 0 0 0 0 0 0 0 0 0 0 0 0 0 0 0 0 0 1 0 0 0 0 0 0 0 0 0 0 0 0 0 0 0 0 0 0 0 0 0 0 0
0 0 0 0 0 0 0 0 0 0 0 0 0 0 0 0 0 0 0 0 0 1 1 0 0 0 0 0 0 0 0 0 0 0 0 0 0 0 0 0 0 0 0 0 0 0 0 0 0
0 0 0 0 0 0 0 0 0 0 0 0 0 0 0 0 0 0 0 1 1 2 2 1 1 0 0 0 0 0 0 0 0 0 0 0 0 0 0 0 0 0 0 0 0 0 0 0 0
0 0 0 0 0 0 0 0 0 0 0 0 0 0 0 0 0 1 2 2 3 3 2 2 1 0 0 0 0 0 0 0 0 0 0 0 0 0 0 0 0 0 0 0 0 0 0 0 0
0 0 0 0 0 0 0 0 0 0 0 0 0 0 0 0 3 5 4 3 3 2 1 1 1 0 0 0 0 0 0 0 0 0 0 0 0 0 0 0 0 0 0 0 0 0 0 0 0
0 0 0 0 0 0 0 0 0 0 0 0 0 0 0 1 5 7 4 2 2 1 0 0 0 0 0 0 0 0 0 0 0 0 0 0 0 0 0 0 0 0 0 0 0 0 0 0 0
0 0 0 0 0 0 0 0 0 0 0 0 0 0 0 1 4 4 2 1 1 0 0 0 0 0 0 0 0 0 0 0 0 0 0 0 0 0 0 0 0 0 0 0 0 0 0 0 0
0 0 0 0 0 0 0 0 0 0 0 0 0 0 0 0 1 1 0 0 0 0 0 0 0 0 0 0 0 0 0 0 0 0 0 0 0 0 0 0 0 0 0 0 0 0 0 0 0
0 0 0 0 0 0 0 0 0 0 0 0 0 0 0 0 0 0 0 0 0 0 0 0 0 0 0 0 0 0 0 0 0 0 0 0 0 0 0 0 0 0 0 0 0 0 0 0 0
0 0 0 0 0 0 0 0 0 0 0 0 0 0 0 0 0 0 0 0 0 0 0 0 0 0 0 0 0 0 0 0 0 0 0 0 0 0 0 0 0 0 0 0 0 0 0 0 0
0 0 0 0 0 0 0 0 0 0 0 0 0 0 0 0 0 0 0 0 0 0 0 0 0 0 0 0 0 0 0 0 0 0 0 0 0 0 0 0 0 0 0 0 0 0 0 0 0
0 0 0 0 0 0 0 0 0 0 0 0 0 0 0 0 0 0 0 0 0 0 0 0 0 0 0 0 0 0 0 0 0 0 0 0 0 0 0 0 0 0 0 0 0 0 0 0 0
0 0 0 0 0 0 0 0 0 0 0 0 0 0 0 0 0 0 0 0 0 0 0 0 0 0 0 0 0 0 0 0 0 0 0 0 0 0 0 0 0 0 0 0 0 0 0 0 0
0 0 0 0 0 0 0 0 0 0 0 0 0 0 0 0 0 0 0 0 0 0 0 0 0 0 0 0 0 0 0 0 0 0 0 0 0 0 0 0 0 0 0 0 0 0 0 0 0
0 0 0 0 0 0 0 0 0 0 0 0 0 0 0 0 0 0 0 0 0 0 0 0 0 0 0 0 0 0 0 0 0 0 0 0 0 0 0 0 0 0 0 0 0 0 0 0 0
0 0 0 0 0 0 0 0 0 0 0 0 0 0 0 0 0 0 0 0 0 0 0 0 0 0 0 0 0 0 0 0 0 0 0 0 0 0 0 0 0 0 0 0 0 0 0 0 0
0 0 0 0 0 0 0 0 0 0 0 0 0 0 0 0 0 0 0 0 0 0 0 0 0 0 0 0 0 0 0 0 0 0 0 0 0 0 0 0 0 0 0 0 0 0 0 0 0
0 0 0 0 0 0 0 0 0 0 0 0 0 0 0 0 0 0 0 0 0 0 0 0 0 0 0 0 0 0 0 0 0 0 0 0 0 0 0 0 0 0 0 0 0 0 0 0 0
0 0 0 0 0 0 0 0 0 0 0 0 0 0 0 0 0 0 0 0 0 0 0 0 0 0 0 0 0 0 0 0 0 0 0 0 0 0 0 0 0 0 0 0 0 0 0 0 0
0 0 0 0 0 0 0 0 0 0 0 0 0 0 0 0 0 0 0 0 0 0 0 0 0 0 0 0 0 0 0 0 0 0 0 0 0 0 0 0 0 0 0 0 0 0 0 0 0
0 0 0 0 0 0 0 0 0 0 0 0 0 0 0 0 0 0 0 0 0 0 0 0 0 0 0 0 0 0 0 0 0 0 0 0 0 0 0 0 0 0 0 0 0 0 0 0 0
0 0 0 0 0 0 0 0 0 0 0 0 0 0 0 0 0 0 0 0 0 0 0 0 0 0 0 0 0 0 0 0 0 0 0 0 0 0 0 0 0 0 0 0 0 0 0 0 0
0 0 0 0 0 0 0 0 0 0 0 0 0 0 0 0 0 0 0 0 0 0 0 0 0 0 0 0 0 0 0 0 0 0 0 0 0 0 0 0 0 0 0 0 0 0 0 0 0
0 0 0 0 0 0 0 0 0 0 0 0 0 0 0 0 0 0 0 0 0 0 0 0 0 0 0 0 0 0 0 0 0 0 0 0 0 0 0 0 0 0 0 0 0 0 0 0 0
0 0 0 0 0 0 0 0 0 0 0 0 0 0 0 0 0 0 0 0 0 0 0 0 0 0 0 0 0 0 0 0 0 0 0 0 0 0 0 0 0 0 0 0 0 0 0 0 0
0 0 0 0 0 0 0 0 0 0 0 0 0 0 0 0 0 0 0 0 0 0 0 0 0 0 0 0 0 0 0 0 0 0 0 0 0 0 0 0 0 0 0 0 0 0 0 0 0
0 0 0 0 0 0 0 0 0 0 0 0 0 0 0 0 0 0 0 0 0 0 0 0 0 0 0 0 0 0 0 0 0 0 0 0 0 0 0 0 0 0 0 0 0 0 0 0 0
Wind_Speed
5 3 3 4 6 4 3 6 4 1 2 2 2 7 8 4 3 5 2 9 14 13 10 13 15 14 15 15 15 15 14 13 12 11 10 10 10 11 11 12 13 13 13 13 13 12 12 11 11
2 2 5 5 5 2 5 5 4 4 4 3 4 5 7 4 3 6 4 10 15 13 10 11 15 15 16 16 16 15 14 13 12 10 10 10 10 11 12 13 13 13 13 13 12 12 11 11 10
1 2 4 4 4 6 5 3 5 3 3 3 4 5 5 3 2 4 8 14 13 10 8 11 15 16 16 16 16 15 14 13 11 10 9 10 11 12 13 13 13 13 13 12 11 11 10 9 9
2 4 5 3 5 7 5 3 3 1 1 3 6 5 3 3 2 7 13 14 13 9 8 10 15 16 16 16 16 15 14 12 11 10 10 11 12 13 13 13 13 12 12 11 10 10 8 8 7
3 4 2 1 6 6 4 5 4 1 1 3 6 5 3 7 6 14 14 14 13 9 8 9 14 16 16 15 15 15 14 12 11 10 11 12 12 13 13 12 12 11 11 10 9 8 7 6 6
4 4 3 4 7 6 5 4 2 1 1 3 6 5 2 3 6 11 13 13 13 12 9 9 14 14 14 15 15 14 14 13 11 11 11 12 12 12 12 11 11 10 10 9 8 7 6 4 4
5 5 5 5 5 6 6 4 2 2 2 2 5 6 2 2 3 8 11 12 11 11 9 7 9 10 13 13 13 13 13 12 11 10 10 10 10 10 11 10 10 9 9 8 7 7 5 4 2
5 5 5 5 5 7 5 4 3 3 2 2 5 9 6 3 4 10 10 9 9 8 8 7 7 7 7 8 11 11 11 11 10 9 9 9 8 8 8 7 8 8 8 7 7 6 5 4 3
5 5 9 9 7 6 4 5 6 3 4 4 3 4 6 8 9 12 10 7 6 7 6 7 7 6 6 6 8 9 10 10 9 8 10 8 4 4 4 5 6 6 7 7 7 6 5 3 3
5 8 12 8 6 3 5 5 6 4 3 4 5 5 6 8 10 11 11 9 8 8 6 6 7 7 6 6 5 4 4 5 5 4 5 4 4 3 4 6 7 7 7 7 7 7 5 3 2
7 10 8 6 5 1 5 8 5 1 1 4 8 8 6 8 8 8 8 8 8 8 7 7 7 7 6 4 5 3 3 3 4 5 5 4 3 3 3 2 4 4 5 3 4 4 2 2 2
6 6 7 6 3 1 3 6 6 4 4 5 9 11 8 9 9 8 8 7 7 7 7 7 7 7 7 5 5 5 4 4 4 5 6 4 3 3 3 3 4 3 3 3 3 2 4 4 4
5 6 8 6 5 4 3 6 5 6 4 3 8 8 8 8 7 6 6 6 6 6 7 7 7 7 7 6 5 5 5 5 6 5 6 6 5 5 5 4 4 5 4 4 4 4 5 5 5
5 4 6 7 8 7 7 6 4 6 4 4 9 8 7 7 7 6 6 6 6 6 6 6 6 6 6 5 5 5 5 5 5 5 7 8 6 6 6 6 6 6 5 5 5 6 6 5 4
5 4 3 5 8 7 7 8 9 8 4 3 6 7 7 6 6 7 7 6 7 6 5 5 6 6 6 6 6 4 4 5 5 6 7 8 8 7 7 6 6 7 6 6 5 6 5 5 5
6 6 4 5 8 8 10 11 11 7 5 5 5 4 4 3 4 5 6 5 5 5 4 4 4 5 5 5 5 4 4 4 4 5 5 8 8 8 7 6 7 7 6 6 6 5 5 5 5
5 8 7 5 7 7 8 8 7 4 5 6 6 5 4 3 2 2 3 4 4 4 3 3 2 3 4 4 4 4 3 4 4 4 4 5 7 7 7 6 6 6 6 6 6 6 5 6 6
12 11 9 8 7 7 8 6 5 3 4 6 6 5 4 4 3 2 3 4 4 4 4 3 1 0 2 2 2 2 3 3 3 3 4 5 5 6 6 5 6 6 5 6 6 6 6 5 5
8 7 7 5 5 7 7 7 7 5 3 5 5 5 5 4 2 2 3 4 5 5 5 4 3 2 1 1 1 2 3 3 3 3 4 5 5 5 6 5 5 5 6 7 7 6 6 6 3
7 7 5 2 3 6 5 7 7 7 5 6 7 7 6 5 4 3 4 5 6 5 5 5 4 3 2 1 1 1 2 2 3 3 3 4 4 5 5 6 5 6 6 7 7 6 4 4 4
5 8 8 5 2 2 3 5 8 8 5 5 5 6 7 9 8 5 5 5 5 5 4 4 4 4 3 2 1 1 1 2 2 2 2 3 4 4 5 6 6 6 6 6 7 7 8 6 5
4 5 8 7 6 3 5 4 8 7 8 8 7 6 7 7 7 6 6 5 4 3 3 4 4 4 4 3 2 2 1 1 2 2 3 4 4 4 4 5 5 6 5 6 7 7 7 7 6
3 3 6 6 5 2 2 3 9 4 9 12 10 8 7 8 8 8 6 6 5 4 4 4 5 5 5 5 4 3 2 1 2 2 3 4 4 4 4 4 4 4 4 5 6 6 7 6 7
4 8 8 6 4 3 6 5 9 7 10 8 9 8 8 8 7 7 5 6 5 4 4 4 5 5 5 5 5 4 3 3 3 3 4 3 3 3 5 5 4 4 4 5 5 6 6 6 7
5 7 4 2 2 7 4 6 11 8 8 10 11 10 9 9 8 7 6 6 5 4 4 4 4 4 5 5 5 4 3 3 3 3 3 3 3 3 6 6 5 4 4 4 4 4 5 5 6
3 7 8 7 6 4 3 9 10 6 6 6 9 10 9 8 7 7 7 6 5 5 4 4 4 4 4 4 4 4 4 3 3 3 3 3 3 3 5 6 5 5 5 5 4 3 3 3 4
5 3 4 5 2 2 6 7 7 2 2 6 9 10 9 8 7 7 6 6 5 4 4 4 4 4 4 4 4 5 5 5 4 4 4 3 4 4 6 6 6 6 6 6 5 3 3 3 3
2 4 4 5 5 5 6 6 6 5 6 7 10 10 8 7 7 7 6 5 5 4 4 4 4 4 4 4 4 4 5 5 5 5 6 6 6 6 6 7 7 7 7 7 5 4 5 4 4
4 4 4 4 4 5 4 8 6 9 10 11 10 8 9 8 8 7 6 5 5 4 4 4 4 4 4 4 4 5 5 5 5 6 6 6 6 6 7 7 7 8 8 8 7 7 7 6 6
4 5 6 5 5 4 3 9 5 6 7 8 8 7 7 8 7 7 6 5 5 5 4 4 3 4 3 4 5 5 5 5 6 6 6 6 6 6 7 7 8 8 9 9 9 8 8 8 8
Wind_Direction
334 352 69 57 59 59 239 245 237 240 178 212 130 104 102 91 131 152 115 139 136 141 148 147 145 143 139 135 130 126 122 118 113 111 111 113 118 121 117 112 109 104 100 98 96 95 92 90 89
334 30 60 63 97 169 253 250 238 223 201 175 115 97 84 71 87 105 113 140 139 141 144 148 144 143 139 135 132 128 124 119 115 115 116 119 125 126 122 116 112 108 105 103 101 99 97 94 91
311 71 82 85 146 194 229 247 218 237 236 142 79 67 92 113 129 117 141 138 132 133 139 148 145 144 141 138 135 131 127 124 120 120 121 124 126 127 124 118 115 113 112 111 109 106 102 97 92
80 61 63 101 219 227 230 275 254 222 356 67 88 59 48 355 149 126 135 134 129 127 134 149 146 145 143 141 139 136 133 130 127 126 129 128 124 125 123 121 121 121 121 119 116 113 108 100 93
73 89 92 217 241 253 257 270 258 197 128 73 92 86 29 348 88 123 135 135 133 132 139 150 148 147 146 145 143 140 138 137 136 135 135 130 127 128 127 128 130 131 131 129 126 123 118 108 96
87 89 136 217 248 272 281 272 276 176 115 91 96 95 48 3 97 133 139 139 140 142 145 150 150 148 148 148 147 145 144 144 144 143 140 136 133 134 136 137 140 142 142 141 139 137 135 128 110
135 136 181 208 250 272 274 280 216 159 109 108 117 103 110 41 83 130 136 136 139 144 144 145 149 150 151 151 151 151 151 150 150 149 145 140 138 143 146 148 151 154 154 154 153 154 157 160 156
141 141 185 208 231 257 294 314 285 175 150 84 103 129 160 163 105 114 123 127 133 140 145 144 146 148 150 153 156 155 155 155 153 149 144 145 146 150 156 159 164 166 168 168 170 173 179 190 210
114 149 200 202 211 244 323 334 327 322 98 67 66 132 146 129 114 114 118 120 133 145 150 150 150 151 149 154 162 158 158 160 155 152 153 149 151 156 165 174 177 179 180 184 189 193 198 209 248
140 187 207 204 205 247 319 315 313 346 44 65 59 68 106 113 119 129 141 147 154 162 169 167 163 162 158 166 156 157 159 160 157 158 161 159 165 178 183 192 193 192 192 197 204 207 208 210 274
164 194 199 211 218 287 314 304 309 322 280 183 159 156 142 127 131 140 150 156 161 164 168 176 176 171 169 166 159 164 160 162 170 174 177 175 177 190 196 191 200 199 198 203 217 217 215 221 240
170 200 185 202 197 191 266 291 306 289 245 225 172 157 151 151 157 164 166 167 163 164 169 172 172 173 179 173 171 173 173 177 186 191 188 181 187 197 197 199 201 198 196 199 209 214 225 236 243
179 183 190 190 176 199 235 269 280 278 268 132 128 139 156 165 172 180 177 175 171 177 181 179 172 170 173 173 180 182 186 191 197 197 198 192 193 199 198 203 205 205 201 201 208 218 226 234 240
181 159 172 184 179 192 196 243 244 248 257 138 133 145 161 172 175 171 178 185 190 194 196 187 181 175 169 174 183 186 192 198 198 202 206 201 200 198 197 201 205 209 209 209 210 215 222 228 228
144 128 143 177 178 183 176 219 221 224 236 170 153 157 163 170 165 171 178 182 190 195 203 200 195 184 181 188 191 188 188 194 201 207 210 209 206 202 200 203 207 210 209 210 212 219 225 233 232
132 134 167 198 177 172 170 215 223 225 205 203 190 180 175 182 177 177 176 170 175 177 187 205 203 191 197 202 204 202 195 196 204 207 210 213 211 208 205 209 213 207 204 207 210 212 218 228 229
144 167 177 195 190 160 174 214 233 222 204 211 207 199 191 202 211 187 168 154 145 154 161 174 185 194 208 215 216 218 215 215 215 213 214 217 216 212 212 219 220 205 206 209 213 212 208 220 226
172 171 175 187 193 164 183 213 248 251 217 218 215 204 195 192 203 179 133 116 105 99 99 102 107 169 223 219 224 238 240 241 233 227 226 223 221 217 216 225 225 211 213 218 216 216 213 215 217
140 146 167 190 186 168 196 216 239 256 246 231 216 198 189 182 168 111 90 92 87 68 65 60 61 28 46 109 193 221 239 247 248 243 241 236 233 228 223 231 230 221 223 226 221 218 220 226 202
135 148 171 193 187 174 204 234 244 248 233 219 208 201 184 157 136 105 82 71 73 70 61 56 49 42 46 79 190 212 242 253 250 261 264 255 250 244 235 234 235 229 230 234 227 218 220 221 184
164 175 178 172 118 103 143 265 248 252 240 230 217 199 179 167 158 140 110 93 80 67 53 47 35 36 33 24 44 25 24 353 339 307 287 276 267 260 250 244 242 239 230 233 231 220 219 227 213
180 195 169 151 136 196 172 239 263 233 237 231 218 194 178 163 151 142 130 114 101 83 58 47 39 39 29 31 50 68 96 263 274 288 294 303 298 284 272 261 253 249 243 241 240 231 226 225 227
179 148 137 142 135 128 180 205 274 235 227 229 216 197 181 165 154 147 141 129 111 87 64 48 47 41 31 36 44 56 41 307 305 320 325 324 323 319 309 286 271 264 257 254 250 245 235 228 230
121 84 67 60 86 216 208 189 266 228 216 217 202 187 174 160 148 139 129 117 101 79 63 53 53 40 30 35 39 48 39 12 4 355 346 337 334 340 346 331 307 286 276 269 262 254 247 242 239
116 112 98 114 203 241 202 203 247 244 228 208 187 175 167 156 148 143 135 124 111 90 71 60 62 44 29 35 37 34 31 31 23 356 350 350 351 350 347 349 342 328 311 297 286 273 264 254 249
161 139 154 175 200 252 211 227 250 268 259 193 161 156 155 155 154 151 146 136 124 108 88 75 72 54 36 38 37 32 28 30 25 17 15 12 1 354 352 356 357 354 346 335 321 300 288 280 265
144 157 155 133 159 222 248 267 297 332 99 138 145 151 159 160 158 152 144 138 132 120 105 97 87 64 41 37 46 40 32 34 30 24 24 21 10 6 7 6 7 4 2 358 352 351 343 335 323
128 143 116 132 164 229 264 250 241 224 199 172 164 164 163 159 155 151 147 144 137 126 111 95 89 77 55 47 47 55 38 36 34 35 32 28 19 16 15 16 16 15 13 11 15 14 10 25 20
165 169 161 159 180 186 244 263 228 213 197 182 176 169 165 166 164 160 155 148 136 124 113 104 91 79 65 59 58 55 43 39 41 41 34 29 25 23 26 24 25 25 21 19 27 31 28 37 36
195 189 166 171 212 195 206 268 285 242 193 170 170 172 172 168 164 160 156 147 140 132 122 112 100 88 79 74 67 59 50 47 46 42 35 34 33 30 31 32 35 33 30 28 32 35 37 41 43